Miscellaneous Local Product
Issued by NWS Hastings, NE

Home | Current Version | Previous Version | Text Only | Print | Product List | Glossary On
Versions: 1 2 3 4 5 6 7 8 9 10 11 12 13 14 15 16 17 18 19 20 21 22 23 24 25 26 27 28 29 30 31 32 33 34 35 36 37 38 39 40 41 42 43 44 45 46 47 48 49 50
282
AXUS43 KGID 190002
MISGRI

GID CWA HOURLY WEATHER ROUNDUP
NATIONAL WEATHER SERVICE HASTINGS NE
600 PM CST SAT NOV 18 2017

NOTE: "FAIR" INDICATES FEW OR NO CLOUDS BELOW 12,000 FEET WITH NO
SIGNIFICANT WEATHER AND/OR OBSTRUCTIONS TO VISIBILITY.

...SOUTH CENTRAL NEBRASKA...

CITY           SKY/WX    TMP DP  RH WIND       PRES   REMARKS
GRAND ISLAND   CLEAR     38  27  64 NW7       30.16R WCI  33
KEARNEY        CLEAR     39  24  55 NW7       30.18R WCI  34
HASTINGS       CLEAR     39  24  55 NW8       30.17R WCI  33
ORD            CLEAR     34  24  67 NW8       30.14R WCI  27
YORK           CLEAR     37  28  70 CALM      30.15R
AURORA         CLEAR     38  26  64 NW10      30.16R WCI  30
LEXINGTON      CLEAR     35  24  62 NW10      30.19R WCI  28
HOLDREGE       CLEAR     37  25  61 NW6       30.19R WCI  33
HEBRON         CLEAR     42  27  55 NW3       30.17R

...NEBRASKA PANHANDLE...

CITY           SKY/WX    TMP DP  RH WIND       PRES   REMARKS
CHADRON        CLEAR     33  18  53 W7        30.17S WCI  27
ALLIANCE       CLEAR     31  13  47 W9        30.17R WCI  23
SCOTTSBLUFF    CLEAR     38  17  42 W8        30.19R WCI  32
SIDNEY         CLEAR     34  16  47 NW12      30.20R WCI  25

...WESTERN AND NORTH CENTRAL NEBRASKA...

CITY           SKY/WX    TMP DP  RH WIND       PRES   REMARKS
VALENTINE      PTCLDY    39  22  50 NW3       30.15R
AINSWORTH      CLEAR     36  24  62 N6        30.15R WCI  31
ONEILL         CLEAR     32  25  73 NW6       30.15R WCI  27
BROKEN BOW     CLEAR     37  23  56 NW10      30.15R WCI  30
IMPERIAL       CLEAR     39  15  37 W7        30.21R WCI  34
NORTH PLATTE   CLEAR     35  19  52 NW7       30.19R WCI  29
MCCOOK         CLEAR     38  21  50 NW7       30.21R WCI  33

...EASTERN NEBRASKA...

CITY           SKY/WX    TMP DP  RH WIND       PRES   REMARKS
NORFOLK        CLEAR     33  23  66 NW8       30.12R WCI  26
SO SIOUX CITY  PTCLDY    33  20  58 NW15      30.12R WCI  23
TEKAMAH        PTCLDY    34  22  61 NW12      30.13R WCI  25
COLUMBUS       CLEAR     36  25  64 NW10      30.15R WCI  28
ALBION         CLEAR     35  26  69 N5        30.14R WCI  31
OMAHA EPPLEY   CLEAR     38  25  59 NW15      30.11R WCI  29
OFFUTT AFB     CLEAR     40  23  50 NW15      30.11R WCI  32
MILLARD        PTCLDY    41  27  57 NW9G17    30.13R
LINCOLN        CLEAR     42  26  53 NW13      30.15R
NEBRASKA CITY  CLEAR     40  28  62 NW8       30.11R WCI  35
BEATRICE       CLEAR     38  27  66 NW8       30.14R WCI  32
FALLS CITY     CLEAR     42  27  55 NW12      30.11R

...NORTHERN KANSAS...

CITY           SKY/WX    TMP DP  RH WIND       PRES   REMARKS
GOODLAND       CLEAR     34  14  43 NW8       30.22S WCI  27
HILL CITY      CLEAR     42  21  43 NW7       30.23R
NORTON         CLEAR     37  18  44 NW7       30.20R WCI  32
PHILLIPSBURG   CLEAR     39  19  45 W6        30.21R WCI  35
SMITH CENTER   CLEAR     37  23  56 NW3       30.20R
HAYS           CLEAR     43  21  41 NW7       30.22R
RUSSELL        CLEAR     41  23  48 NW8       30.20R
CONCORDIA      CLEAR     44  25  47 NW9       30.17R
SALINA         CLEAR     48  24  39 NW9       30.19R
TOPEKA         CLEAR     48  30  49 NW12      30.12R



USA.gov is the U.S. government's official web portal to all federal, state and local government web resources and services.